EN

Hourly Weather Bolshoe Chernevo

Today, 20 October, Tuesday

Time Temperature Precipitation Wind Pressure Humidity
00:00 +1°C° 0 mm 6 mps 741 mmHg 77%
01:00 +1°C° 0 mm 6 mps 741 mmHg 78%
02:00 +1°C° 0 mm 6 mps 741 mmHg 80%
03:00 0°C° 0 mm 7 mps 741 mmHg 81%
04:00 -1°C° 0 mm 7 mps 741 mmHg 82%
05:00 -1°C° 0 mm 7 mps 741 mmHg 82%
06:00 -1°C° 0 mm 7 mps 741 mmHg 83%
07:00 0°C° 0 mm 7 mps 742 mmHg 81%
08:00 0°C° 0 mm 7 mps 742 mmHg 79%
09:00 0°C° 0 mm 7 mps 742 mmHg 76%
10:00 +2°C° 0.1 mm 7 mps 742 mmHg 76%
11:00 +2°C° 0.1 mm 7 mps 742 mmHg 76%
12:00 +2°C° 0.1 mm 7 mps 742 mmHg 76%
13:00 +2°C° 0.1 mm 7 mps 742 mmHg 77%
14:00 +1°C° 0.1 mm 8 mps 742 mmHg 79%
15:00 +1°C° 0.1 mm 8 mps 743 mmHg 80%
16:00 0°C° 0.1 mm 7 mps 743 mmHg 82%
17:00 0°C° 0.1 mm 7 mps 743 mmHg 84%
18:00 +1°C° 0.1 mm 6 mps 744 mmHg 86%
19:00 -1°C° 0 mm 6 mps 744 mmHg 85%
20:00 0°C° 0 mm 5 mps 745 mmHg 84%
21:00 0°C° 0 mm 4 mps 745 mmHg 82%
22:00 -1°C° 0 mm 5 mps 746 mmHg 83%
23:00 -1°C° 0 mm 5 mps 746 mmHg 84%

Tomorrow, 21 October, Wednesday

Time Temperature Precipitation Wind Pressure Humidity
00:00 -2°C° 0 mm 5 mps 746 mmHg 84%
01:00 -2°C° 0 mm 4 mps 747 mmHg 86%
02:00 -2°C° 0 mm 4 mps 747 mmHg 89%
03:00 -3°C° 0 mm 4 mps 748 mmHg 91%
04:00 -3°C° 0 mm 4 mps 748 mmHg 92%
05:00 -3°C° 0 mm 4 mps 748 mmHg 93%
06:00 -3°C° 0 mm 4 mps 748 mmHg 94%
07:00 -2°C° 0 mm 4 mps 748 mmHg 91%
08:00 -2°C° 0 mm 4 mps 748 mmHg 88%
09:00 -1°C° 0 mm 4 mps 748 mmHg 85%
10:00 0°C° 0 mm 4 mps 748 mmHg 79%
11:00 0°C° 0 mm 4 mps 748 mmHg 73%
12:00 +1°C° 0 mm 4 mps 747 mmHg 67%
13:00 +1°C° 0.1 mm 4 mps 747 mmHg 76%
14:00 0°C° 0.1 mm 4 mps 747 mmHg 84%
15:00 0°C° 0.1 mm 4 mps 747 mmHg 92%
16:00 +1°C° 0.2 mm 3 mps 747 mmHg 93%
17:00 +1°C° 0.2 mm 3 mps 747 mmHg 95%
18:00 +1°C° 0.2 mm 3 mps 746 mmHg 96%
19:00 +2°C° 0.3 mm 2 mps 746 mmHg 96%
20:00 +2°C° 0.3 mm 2 mps 746 mmHg 97%
21:00 +4°C° 0.3 mm 1 mps 746 mmHg 97%
22:00 +3°C° 0 mm 1 mps 746 mmHg 97%
23:00 +3°C° 0 mm 1 mps 746 mmHg 97%

Day after tomorrow, 22 October, Thursday

Time Temperature Precipitation Wind Pressure Humidity
00:00 +3°C° 0 mm 1 mps 745 mmHg 96%
01:00 +4°C° 0 mm 1 mps 745 mmHg 95%
02:00 +4°C° 0 mm 1 mps 746 mmHg 95%
03:00 +4°C° 0 mm 1 mps 746 mmHg 94%
04:00 +3°C° 0 mm 2 mps 746 mmHg 94%
05:00 +3°C° 0 mm 2 mps 746 mmHg 95%
06:00 +3°C° 0 mm 2 mps 746 mmHg 95%
07:00 +3°C° 0 mm 2 mps 746 mmHg 94%
08:00 +4°C° 0 mm 2 mps 745 mmHg 93%
09:00 +3°C° 0 mm 3 mps 745 mmHg 92%
10:00 +3°C° 0 mm 3 mps 745 mmHg 91%
11:00 +4°C° 0 mm 3 mps 745 mmHg 90%
12:00 +4°C° 0 mm 3 mps 745 mmHg 88%
13:00 +5°C° 0 mm 3 mps 745 mmHg 87%
14:00 +5°C° 0 mm 3 mps 745 mmHg 85%
15:00 +6°C° 0 mm 4 mps 744 mmHg 83%
16:00 +6°C° 0.3 mm 4 mps 744 mmHg 86%
17:00 +6°C° 0.3 mm 4 mps 743 mmHg 90%
18:00 +5°C° 0.3 mm 4 mps 743 mmHg 93%
19:00 +6°C° 0.3 mm 4 mps 742 mmHg 93%
20:00 +6°C° 0.3 mm 5 mps 742 mmHg 93%
21:00 +6°C° 0.3 mm 5 mps 742 mmHg 93%
22:00 +6°C° 0 mm 5 mps 741 mmHg 93%
23:00 +6°C° 0 mm 5 mps 741 mmHg 92%

23 October, Friday

Time Temperature Precipitation Wind Pressure Humidity
00:00 +6°C° 0 mm 5 mps 741 mmHg 92%
01:00 +7°C° 0 mm 5 mps 741 mmHg 92%
02:00 +7°C° 0 mm 5 mps 741 mmHg 93%
03:00 +7°C° 0 mm 5 mps 741 mmHg 93%
04:00 +6°C° 0 mm 5 mps 741 mmHg 94%
05:00 +6°C° 0 mm 5 mps 741 mmHg 94%
06:00 +6°C° 0 mm 5 mps 741 mmHg 95%
07:00 +6°C° 0 mm 5 mps 741 mmHg 94%
08:00 +7°C° 0 mm 4 mps 741 mmHg 94%
09:00 +7°C° 0 mm 4 mps 741 mmHg 93%
10:00 +8°C° 0 mm 4 mps 741 mmHg 90%
11:00 +9°C° 0 mm 5 mps 741 mmHg 86%
12:00 +10°C° 0 mm 5 mps 741 mmHg 83%
13:00 +10°C° 0 mm 5 mps 740 mmHg 82%
14:00 +11°C° 0 mm 6 mps 740 mmHg 81%
15:00 +11°C° 0 mm 6 mps 739 mmHg 80%
16:00 +11°C° 0 mm 6 mps 739 mmHg 82%
17:00 +11°C° 0 mm 6 mps 738 mmHg 83%
18:00 +10°C° 0 mm 6 mps 738 mmHg 85%
19:00 +10°C° 0 mm 6 mps 738 mmHg 85%
20:00 +10°C° 0 mm 6 mps 738 mmHg 85%
21:00 +10°C° 0 mm 6 mps 737 mmHg 85%
22:00 +10°C° 0 mm 6 mps 737 mmHg 85%
23:00 +9°C° 0 mm 6 mps 736 mmHg 86%

24 October, Saturday

Time Temperature Precipitation Wind Pressure Humidity
00:00 +9°C° 0 mm 6 mps 736 mmHg 86%
01:00 +9°C° 0.6 mm 6 mps 736 mmHg 88%
02:00 +9°C° 0.6 mm 6 mps 735 mmHg 90%
03:00 +9°C° 0.6 mm 6 mps 735 mmHg 92%
04:00 +9°C° 0.5 mm 6 mps 735 mmHg 92%
05:00 +9°C° 0.5 mm 5 mps 735 mmHg 93%
06:00 +9°C° 0.5 mm 5 mps 735 mmHg 93%
07:00 +9°C° 0 mm 5 mps 735 mmHg 91%
08:00 +10°C° 0 mm 5 mps 735 mmHg 88%
09:00 +10°C° 0 mm 5 mps 736 mmHg 86%
10:00 +11°C° 0 mm 6 mps 736 mmHg 81%
11:00 +11°C° 0 mm 6 mps 736 mmHg 77%
12:00 +13°C° 0 mm 6 mps 737 mmHg 72%
13:00 +13°C° 0 mm 6 mps 737 mmHg 72%
14:00 +13°C° 0 mm 5 mps 737 mmHg 72%
15:00 +12°C° 0 mm 5 mps 737 mmHg 72%
16:00 +12°C° 0 mm 4 mps 737 mmHg 76%
17:00 +11°C° 0 mm 4 mps 737 mmHg 79%
18:00 +10°C° 0 mm 3 mps 737 mmHg 82%
19:00 +10°C° 0 mm 3 mps 737 mmHg 85%
20:00 +9°C° 0 mm 3 mps 737 mmHg 87%
21:00 +9°C° 0 mm 2 mps 737 mmHg 90%
22:00 +9°C° 0.1 mm 2 mps 737 mmHg 90%
23:00 +9°C° 0.1 mm 2 mps 737 mmHg 91%

25 October, Sunday

Time Temperature Precipitation Wind Pressure Humidity
00:00 +9°C° 0.1 mm 2 mps 737 mmHg 91%
01:00 +9°C° 0.2 mm 2 mps 736 mmHg 91%
02:00 +9°C° 0.2 mm 3 mps 736 mmHg 91%
03:00 +9°C° 0.2 mm 3 mps 735 mmHg 92%
04:00 +8°C° 0.1 mm 3 mps 735 mmHg 92%
05:00 +8°C° 0.1 mm 3 mps 735 mmHg 92%
06:00 +7°C° 0.1 mm 3 mps 734 mmHg 92%
07:00 +8°C° 0 mm 3 mps 734 mmHg 90%
08:00 +8°C° 0 mm 3 mps 734 mmHg 88%
09:00 +8°C° 0 mm 2 mps 734 mmHg 86%
10:00 +8°C° 0.1 mm 2 mps 734 mmHg 84%
11:00 +8°C° 0.1 mm 2 mps 734 mmHg 82%
12:00 +9°C° 0.1 mm 2 mps 734 mmHg 80%
13:00 +9°C° 0.2 mm 3 mps 734 mmHg 80%
14:00 +9°C° 0.2 mm 3 mps 734 mmHg 80%
15:00 +9°C° 0.2 mm 3 mps 734 mmHg 79%
16:00 +7°C° 0.1 mm 4 mps 735 mmHg 81%
17:00 +7°C° 0.1 mm 4 mps 735 mmHg 83%
18:00 +7°C° 0.1 mm 4 mps 735 mmHg 85%
19:00 +6°C° 0.1 mm 5 mps 735 mmHg 86%
20:00 +6°C° 0.1 mm 5 mps 736 mmHg 87%
21:00 +6°C° 0.1 mm 5 mps 736 mmHg 89%
22:00 +6°C° 0.3 mm 5 mps 736 mmHg 89%
23:00 +6°C° 0.3 mm 5 mps 737 mmHg 89%

26 October, Monday

Time Temperature Precipitation Wind Pressure Humidity
00:00 +6°C° 0.3 mm 5 mps 737 mmHg 89%
01:00 +6°C° 0.5 mm 5 mps 738 mmHg 87%
02:00 +5°C° 0.5 mm 6 mps 738 mmHg 86%
03:00 +4°C° 0.5 mm 6 mps 739 mmHg 84%
04:00 +3°C° 0 mm 6 mps 739 mmHg 84%
05:00 +2°C° 0 mm 5 mps 740 mmHg 83%
06:00 +1°C° 0 mm 5 mps 740 mmHg 83%
07:00 +1°C° 0 mm 5 mps 741 mmHg 84%
08:00 +1°C° 0 mm 5 mps 741 mmHg 85%
09:00 +1°C° 0 mm 5 mps 741 mmHg 86%
10:00 +1°C° 0 mm 6 mps 741 mmHg 83%
11:00 +1°C° 0 mm 6 mps 741 mmHg 80%
12:00 +1°C° 0 mm 6 mps 741 mmHg 78%
13:00 +2°C° 0 mm 6 mps 741 mmHg 76%
14:00 +2°C° 0 mm 6 mps 741 mmHg 74%
15:00 +2°C° 0 mm 6 mps 741 mmHg 72%
16:00 +2°C° 0 mm 6 mps 741 mmHg 74%
17:00 +1°C° 0 mm 6 mps 741 mmHg 77%
18:00 +1°C° 0 mm 6 mps 742 mmHg 79%
19:00 -1°C° 0.1 mm 6 mps 742 mmHg 79%
20:00 -1°C° 0.1 mm 6 mps 743 mmHg 79%
21:00 -2°C° 0.1 mm 6 mps 743 mmHg 79%
22:00 -2°C° 0 mm 6 mps 744 mmHg 80%
23:00 -3°C° 0 mm 6 mps 745 mmHg 82%
Show more